Regional Weather Roundup
Issued by NWS

Home | Current Version | Previous Version | Text Only | Print | Product List | Glossary Off
Versions: 1 2 3 4 5 6 7 8 9 10 11 12 13 14 15 16 17 18 19 20 21 22 23 24 25 26 27 28 29 30 31 32 33 34 35 36 37 38 39 40 41 42 43 44 45 46 47 48 49 50

000
ASUS43 KTOP 180659
RWRKS

WEATHER ROUNDUP FOR KANSAS
NATIONAL WEATHER SERVICE GOODLAND KS
200 AM CDT THU SEP 18 2014

NOTE:  "FAIR" INDICATES FEW OR NO CLOUDS BELOW 12,000 FEET WITH NO
SIGNIFICANT WEATHER AND/OR OBSTRUCTIONS TO VISIBILITY.

KSZ001>006-013>018-027>032-041>047-180800-
NORTHWEST KANSAS

CITY           SKY/WX    TMP DP  RH WIND       PRES   REMARKS
GOODLAND       PTCLDY    61  60  97 S6        29.97F
HAYS           CLOUDY    68  63  83 E14       29.89F
HILL CITY      CLEAR     66  64  93 NE5       29.93R
RUSSELL        CLOUDY    68  66  93 E14       29.88F
$$

KSZ061>065-074>080-084>089-180800-
SOUTHWEST KANSAS

CITY           SKY/WX    TMP DP  RH WIND       PRES   REMARKS
DODGE CITY     PTCLDY    67  60  78 SW7       29.90S
ELKHART          N/A     66  51  58 SW9         N/A
GARDEN CITY    PTCLDY    61  58  90 SW7       29.91S
GREAT BEND     CLEAR     68  64  88 E6        29.88S
LIBERAL        CLEAR     66  57  72 SW10      29.95S
$$

KSZ066>073-081>083-090>101-180800-
SOUTHEAST KANSAS

CITY           SKY/WX    TMP DP  RH WIND       PRES   REMARKS
CHANUTE        CLOUDY    72  69  90 NE10      29.93R
COFFEYVILLE    MOCLDY    69  66  90 E6        29.88S
HUTCHINSON     PTCLDY    70  67  90 E5        29.86F FOG
NEWTON         PTCLDY    70  63  78 E7        29.89S
PARSONS        CLOUDY    70  66  87 VRB3      29.90S
WICHITA INTL   MOCLDY    73  66  78 SE3       29.85F
WICHITA JABRA  PTCLDY    71  68  90 E5        29.85F
WINFIELD       MOCLDY    76  70  82 S10       29.86F
$$

KSZ007>012-019>026-033>040-048>060-102>105-180800-
NORTHEAST KANSAS

CITY           SKY/WX    TMP DP  RH WIND       PRES   REMARKS
CONCORDIA      CLOUDY    65  65 100 W6        29.97R FOG
EMPORIA        MOCLDY    68  66  93 SE6       29.90S
LAWRENCE       FOG       62  61  96 E3        29.95R VSB 1/4
MANHATTAN      CLOUDY    68  65  90 SE6       29.90F
OLATHE IND     CLOUDY   N/A N/A N/A E9        29.95R HAZE
OLATHE EXE     CLOUDY    63  63 100 E10       29.94S FOG
SALINA         CLOUDY    70  66  87 NE7       29.89S
TOPEKA BILLARD MOCLDY    65  65 100 E5        29.95R FOG
TOPEKA FORBES  FOG       63  63 100 E3        29.94R VSB 1/2
$$


USA.gov is the U.S. government's official web portal to all federal, state and local government web resources and services.